Date String (YYYY-MM-DD hh:mm:ss) UTC,Instrument flags,Ambient pressure (hPa),Sample flow (lpm),Bypass flow (lpm),Sample temperature (°C),Ambient temperature (°C),ASC tube jacket temperature (°C),LED temperature (°C),Box temperature (°C),Sample RH (%),Span deviation,Mass concentration (μg/m³),Mass concentration (μg/m³),Mass concentration (μg/m³)
DateTimeUTC,F1_M11,P_M11,Q1_M11,Q2_M11,T1_M11,T2_M11,T3_M11,T4_M11,T5_M11,U1_M11,ZSPAN_M11,X2_M11,X0_M11,X1_M11
2022-10-23 07:00:00,,0806.3,5.00,0.00,30.0,28.3,00.0,38.9,31.9,07.8,0000.0,0002.51,0006.18,0001.73
2022-10-23 07:01:00,,0806.4,4.99,0.00,30.0,28.4,00.0,38.9,31.9,07.8,0000.0,0002.49,0005.96,0001.71
2022-10-23 07:02:00,,0806.4,5.02,0.00,30.0,28.4,00.0,38.9,31.9,07.8,0000.0,0002.49,0007.14,0001.69
2022-10-23 07:03:00,,0806.3,5.00,0.00,30.0,28.4,00.0,38.9,31.9,07.7,0000.0,0002.49,0008.12,0001.69
2022-10-23 07:04:00,,0806.3,5.00,0.00,30.0,28.4,00.0,38.9,31.9,07.7,0000.0,0002.44,0008.38,0001.68
2022-10-23 07:05:00,,0806.2,5.00,0.00,30.0,28.4,00.0,38.9,31.9,07.7,0000.0,0002.42,0008.32,0001.67
2022-10-23 07:06:00,,0806.3,4.99,0.00,30.0,28.5,00.0,38.9,31.9,07.7,0000.0,0002.40,0008.31,0001.67
2022-10-23 07:07:00,,0806.3,4.99,0.00,30.1,28.5,00.0,38.9,31.9,07.7,0000.0,0002.36,0008.32,0001.66
2022-10-23 07:08:00,,0806.4,5.02,0.00,30.1,28.5,00.0,38.9,31.9,07.7,0000.0,0002.35,0007.97,0001.67
2022-10-23 07:09:00,,0806.4,5.00,0.00,30.1,28.5,00.0,38.9,31.9,07.7,0000.0,0002.32,0008.17,0001.65
2022-10-23 07:10:00,,0806.4,5.00,0.00,30.1,28.5,00.0,38.9,31.9,07.7,0000.0,0002.29,0008.27,0001.64
2022-10-23 07:11:00,,0806.4,5.00,0.00,30.1,28.6,00.0,38.9,31.9,07.7,0000.0,0002.27,0008.22,0001.63
2022-10-23 07:12:00,,0806.4,4.99,0.00,30.1,28.6,00.0,38.9,31.9,07.7,0000.0,0002.29,0008.05,0001.64
2022-10-23 07:13:00,,0806.3,4.99,0.00,30.1,28.5,00.0,38.9,31.9,07.7,0000.0,0002.24,0007.15,0001.64
2022-10-23 07:14:00,,0806.2,5.00,0.00,30.1,28.6,00.0,38.9,31.9,07.7,0000.0,0002.28,0006.00,0001.64
2022-10-23 07:15:00,,0806.2,5.02,0.00,30.1,28.6,00.0,38.9,31.9,07.7,0000.0,0002.36,0006.74,0001.63
2022-10-23 07:16:00,,0806.2,5.00,0.00,30.1,28.6,00.0,38.9,32.0,07.8,0000.0,0002.38,0006.84,0001.63
2022-10-23 07:17:00,,0806.2,5.00,0.00,30.1,28.6,00.0,39.0,32.0,07.7,0000.0,0002.35,0007.24,0001.61
2022-10-23 07:18:00,,0806.2,4.99,0.00,30.1,28.6,00.0,39.0,32.0,07.7,0000.0,0002.32,0007.55,0001.60
2022-10-23 07:19:00,,0806.2,5.02,0.00,30.1,28.7,00.0,39.0,32.0,07.7,0000.0,0002.25,0007.80,0001.58
2022-10-23 07:20:00,,0806.2,5.00,0.00,30.2,28.7,00.0,39.0,32.0,07.8,0000.0,0002.22,0008.10,0001.56
2022-10-23 07:21:00,,0806.2,5.00,0.00,30.2,28.6,00.0,39.0,32.0,07.8,0000.0,0002.18,0008.14,0001.55
2022-10-23 07:22:00,,0806.1,5.00,0.00,30.2,28.6,00.0,39.0,32.0,07.8,0000.0,0002.18,0008.16,0001.54
2022-10-23 07:23:00,,0806.1,4.99,0.00,30.2,28.6,00.0,39.0,32.0,07.8,0000.0,0002.13,0008.69,0001.53
2022-10-23 07:24:00,,0806.0,4.99,0.00,30.2,28.6,00.0,39.0,32.0,07.7,0000.0,0002.14,0008.77,0001.53
2022-10-23 07:25:00,,0806.0,5.02,0.00,30.2,28.6,00.0,39.0,32.0,07.7,0000.0,0002.11,0008.92,0001.54
2022-10-23 07:26:00,,0806.0,5.00,0.00,30.2,28.6,00.0,39.0,32.0,07.7,0000.0,0001.99,0008.16,0001.53
2022-10-23 07:27:00,,0806.0,5.00,0.00,30.2,28.6,00.0,39.0,32.0,07.7,0000.0,0001.94,0008.03,0001.53
2022-10-23 07:28:00,,0806.0,4.99,0.00,30.2,28.6,00.0,39.0,32.0,07.6,0000.0,0001.92,0007.77,0001.52
2022-10-23 07:29:00,,0805.9,5.02,0.00,30.2,28.6,00.0,39.0,31.9,07.7,0000.0,0001.97,0007.46,0001.53
2022-10-23 07:30:00,,0805.7,5.00,0.00,30.2,28.5,00.0,39.0,31.9,07.7,0000.0,0002.00,0006.61,0001.52
2022-10-23 07:31:00,,0805.7,5.00,0.00,30.2,28.5,00.0,39.0,32.0,07.7,0000.0,0001.96,0005.08,0001.52
2022-10-23 07:32:00,,0805.7,5.01,0.00,30.2,28.6,00.0,39.0,32.0,07.7,0000.0,0001.95,0004.75,0001.52
2022-10-23 07:33:00,,0805.8,5.01,0.00,30.2,28.6,00.0,39.0,32.0,07.7,0000.0,0001.96,0005.49,0001.51
2022-10-23 07:34:00,,0805.8,4.99,0.00,30.2,28.6,00.0,39.0,32.0,07.7,0000.0,0001.99,0004.77,0001.51
2022-10-23 07:35:00,,0805.9,4.99,0.00,30.2,28.6,00.0,39.0,31.9,07.7,0000.0,0002.02,0004.45,0001.51
2022-10-23 07:36:00,,0805.8,4.99,0.00,30.2,28.6,00.0,39.0,32.0,07.7,0000.0,0002.04,0004.41,0001.48
2022-10-23 07:37:00,,0805.8,5.02,0.00,30.2,28.6,00.0,39.0,32.0,07.7,0000.0,0002.09,0004.78,0001.47
2022-10-23 07:38:00,,0805.7,5.00,0.00,30.2,28.6,00.0,39.0,32.0,07.7,0000.0,0002.08,0004.84,0001.47
2022-10-23 07:39:00,,0805.8,4.99,0.00,30.2,28.5,00.0,39.0,32.0,07.7,0000.0,0002.13,0005.14,0001.47
2022-10-23 07:40:00,,0805.8,4.99,0.00,30.2,28.5,00.0,39.0,32.0,07.7,0000.0,0002.14,0005.15,0001.47
2022-10-23 07:41:00,,0805.7,5.02,0.00,30.2,28.6,00.0,39.0,32.0,07.7,0000.0,0002.15,0005.21,0001.47
2022-10-23 07:42:00,,0805.7,4.99,0.00,30.2,28.5,00.0,39.0,32.0,07.8,0000.0,0002.17,0005.95,0001.47
2022-10-23 07:43:00,,0805.7,4.99,0.00,30.2,28.5,00.0,39.0,32.0,07.8,0000.0,0002.23,0006.57,0001.48
2022-10-23 07:44:00,,0805.9,5.00,0.00,30.2,28.5,00.0,39.0,32.0,07.8,0000.0,0002.29,0005.85,0001.49
2022-10-23 07:45:00,,0805.9,5.00,0.00,30.2,28.5,00.0,39.0,32.0,07.8,0000.0,0002.28,0005.94,0001.51
2022-10-23 07:46:00,,0805.8,5.02,0.00,30.1,28.4,00.0,39.0,31.9,07.8,0000.0,0002.32,0006.52,0001.53
2022-10-23 07:47:00,,0805.8,4.99,0.00,30.1,28.3,00.0,39.0,31.9,07.8,0000.0,0002.32,0006.44,0001.55
2022-10-23 07:48:00,,0805.8,5.00,0.00,30.1,28.3,00.0,39.0,31.8,07.8,0000.0,0002.36,0006.22,0001.58
2022-10-23 07:49:00,,0805.7,5.01,0.00,30.1,28.3,00.0,39.0,31.8,07.8,0000.0,0002.37,0006.14,0001.60
2022-10-23 07:50:00,,0805.5,5.00,0.00,30.1,28.4,00.0,39.0,31.8,07.8,0000.0,0002.38,0006.07,0001.61
2022-10-23 07:51:00,,0805.6,5.00,0.00,30.1,28.4,00.0,39.0,31.9,07.8,0000.0,0002.36,0006.31,0001.61
2022-10-23 07:52:00,,0805.7,4.99,0.00,30.1,28.5,00.0,39.0,31.9,07.7,0000.0,0002.35,0006.64,0001.62
2022-10-23 07:53:00,,0805.8,5.02,0.00,30.1,28.5,00.0,39.0,31.9,07.8,0000.0,0002.35,0006.89,0001.63
2022-10-23 07:54:00,,0805.7,5.00,0.00,30.1,28.5,00.0,39.0,31.9,07.9,0000.0,0002.37,0006.22,0001.65
2022-10-23 07:55:00,,0805.8,4.99,0.00,30.1,28.5,00.0,39.0,31.9,07.9,0000.0,0002.44,0006.23,0001.65
2022-10-23 07:56:00,,0805.7,5.00,0.00,30.1,28.6,00.0,39.0,31.9,07.8,0000.0,0002.42,0006.06,0001.65
2022-10-23 07:57:00,,0805.7,4.99,0.00,30.1,28.6,00.0,39.0,31.9,07.8,0000.0,0002.40,0005.41,0001.65
2022-10-23 07:58:00,,0805.7,4.99,0.00,30.1,28.6,00.0,39.0,32.0,07.8,0000.0,0002.43,0006.25,0001.67
2022-10-23 07:59:00,,0805.6,5.01,0.00,30.1,28.6,00.0,39.0,32.0,07.8,0000.0,0002.43,0006.25,0001.67
